Time,TemperatureF,DewpointF,PressureIn,WindDirection,WindDirectionDegrees,WindSpeedMPH,WindSpeedGustMPH,Humidity,HourlyPrecipIn,Conditions,Clouds,dailyrainin,SoftwareType,DateUTC
2013-05-23 00:02:00,71.2,25.5,29.59,SSE,167,0.0,0.0,18,0.00,,,0.00,meteohub,2013-05-23 06:02:00,
2013-05-23 00:07:00,70.9,25.3,29.60,SSE,167,0.0,0.0,18,0.00,,,0.00,meteohub,2013-05-23 06:07:00,
2013-05-23 00:12:00,70.3,26.1,29.60,SSE,167,0.0,0.0,19,0.00,,,0.00,meteohub,2013-05-23 06:12:00,
2013-05-23 00:17:00,70.2,27.1,29.59,SSE,167,0.0,0.0,20,0.00,,,0.00,meteohub,2013-05-23 06:17:00,
2013-05-23 00:22:00,70.2,26.1,29.60,SSE,167,0.0,0.0,19,0.00,,,0.00,meteohub,2013-05-23 06:22:00,
2013-05-23 00:28:00,70.2,26.1,29.60,SSE,167,0.0,0.0,19,0.00,,,0.00,meteohub,2013-05-23 06:28:00,
2013-05-23 00:33:00,70.3,27.3,29.59,SSE,167,0.0,0.0,20,0.00,,,0.00,meteohub,2013-05-23 06:33:00,
2013-05-23 00:38:00,70.2,27.1,29.60,SSE,167,0.0,0.0,20,0.00,,,0.00,meteohub,2013-05-23 06:38:00,
2013-05-23 00:43:00,70.2,26.1,29.60,SSE,167,0.0,0.0,19,0.00,,,0.00,meteohub,2013-05-23 06:43:00,
2013-05-23 00:48:00,70.0,27.1,29.60,SSE,167,0.0,0.0,20,0.00,,,0.00,meteohub,2013-05-23 06:48:00,
2013-05-23 00:53:00,69.8,31.5,29.60,SSE,167,0.0,0.0,24,0.00,,,0.00,meteohub,2013-05-23 06:53:00,
2013-05-23 00:59:00,69.6,26.8,29.60,SSE,167,0.0,0.0,20,0.00,,,0.00,meteohub,2013-05-23 06:59:00,
2013-05-23 01:04:00,69.8,27.0,29.60,SSE,167,0.0,0.0,20,0.00,,,0.00,meteohub,2013-05-23 07:04:00,
2013-05-23 01:09:00,69.6,26.8,29.60,SSE,167,0.0,0.0,20,0.00,,,0.00,meteohub,2013-05-23 07:09:00,
2013-05-23 01:14:00,69.6,27.9,29.60,SSE,167,0.0,0.0,21,0.00,,,0.00,meteohub,2013-05-23 07:14:00,
2013-05-23 01:19:00,69.6,31.3,29.60,SSE,167,0.0,0.0,24,0.00,,,0.00,meteohub,2013-05-23 07:19:00,
2013-05-23 01:25:00,69.4,33.1,29.60,SSE,167,0.0,0.0,26,0.00,,,0.00,meteohub,2013-05-23 07:25:00,
2013-05-23 01:30:00,69.1,32.7,29.60,SSE,167,0.0,0.0,26,0.00,,,0.00,meteohub,2013-05-23 07:30:00,
2013-05-23 01:35:00,68.5,30.4,29.60,SSE,167,0.0,0.0,24,0.00,,,0.00,meteohub,2013-05-23 07:35:00,
2013-05-23 01:40:00,68.4,31.1,29.60,SSE,167,0.0,0.0,25,0.00,,,0.00,meteohub,2013-05-23 07:40:00,
2013-05-23 01:46:00,68.2,30.0,29.60,SSE,167,0.0,0.0,24,0.00,,,0.00,meteohub,2013-05-23 07:46:00,
2013-05-23 01:52:00,68.4,27.0,29.60,SSE,167,0.0,0.0,21,0.00,,,0.00,meteohub,2013-05-23 07:52:00,
2013-05-23 01:57:00,68.9,27.3,29.60,SSE,167,0.0,0.0,21,0.00,,,0.00,meteohub,2013-05-23 07:57:00,
2013-05-23 02:02:00,69.1,28.6,29.60,SSE,167,0.0,0.0,22,0.00,,,0.00,meteohub,2013-05-23 08:02:00,
2013-05-23 02:07:00,69.1,29.7,29.60,SSE,167,0.0,0.0,23,0.00,,,0.00,meteohub,2013-05-23 08:07:00,
2013-05-23 02:12:00,68.7,28.4,29.60,SSE,167,0.0,0.0,22,0.00,,,0.00,meteohub,2013-05-23 08:12:00,
2013-05-23 02:17:00,68.5,29.3,29.60,SSE,167,0.0,0.0,23,0.00,,,0.00,meteohub,2013-05-23 08:17:00,
2013-05-23 02:22:00,68.5,28.2,29.60,SSE,167,0.0,0.0,22,0.00,,,0.00,meteohub,2013-05-23 08:22:00,
2013-05-23 02:28:00,68.5,27.1,29.60,SSE,167,0.0,0.0,21,0.00,,,0.00,meteohub,2013-05-23 08:28:00,
2013-05-23 02:33:00,68.5,29.3,29.60,SSE,167,0.0,0.0,23,0.00,,,0.00,meteohub,2013-05-23 08:33:00,
2013-05-23 02:38:00,68.4,29.1,29.60,SSE,167,0.0,0.0,23,0.00,,,0.00,meteohub,2013-05-23 08:38:00,
2013-05-23 02:43:00,68.4,28.0,29.60,SSE,167,0.0,0.0,22,0.00,,,0.00,meteohub,2013-05-23 08:43:00,
2013-05-23 02:48:00,68.7,27.1,29.60,SSE,167,0.0,0.0,21,0.00,,,0.00,meteohub,2013-05-23 08:48:00,
2013-05-23 02:54:00,69.1,26.2,29.60,SSE,167,0.0,0.0,20,0.00,,,0.00,meteohub,2013-05-23 08:54:00,
2013-05-23 02:59:00,69.4,26.6,29.60,SSE,167,0.0,0.0,20,0.00,,,0.00,meteohub,2013-05-23 08:59:00,
2013-05-23 03:04:00,69.8,28.0,29.60,SSE,163,0.0,0.0,21,0.00,,,0.00,meteohub,2013-05-23 09:04:00,
2013-05-23 03:09:00,70.2,27.1,29.60,SSE,154,0.0,0.0,20,0.00,,,0.00,meteohub,2013-05-23 09:09:00,
2013-05-23 03:15:00,70.3,26.1,29.60,SSE,148,0.0,0.0,19,0.00,,,0.00,meteohub,2013-05-23 09:15:00,
2013-05-23 03:20:00,70.3,26.1,29.60,SSE,149,0.0,0.0,19,0.00,,,0.00,meteohub,2013-05-23 09:20:00,
2013-05-23 03:25:00,70.3,24.8,29.60,SSE,149,0.0,0.0,18,0.00,,,0.00,meteohub,2013-05-23 09:25:00,
2013-05-23 03:30:00,70.5,27.5,29.60,SSE,149,0.0,0.0,20,0.00,,,0.00,meteohub,2013-05-23 09:30:00,
2013-05-23 03:35:00,70.5,29.8,29.60,SSE,149,0.0,0.0,22,0.00,,,0.00,meteohub,2013-05-23 09:35:00,
2013-05-23 03:41:00,70.2,30.6,29.61,SSE,149,0.0,0.0,23,0.00,,,0.00,meteohub,2013-05-23 09:41:00,
2013-05-23 03:46:00,69.8,30.4,29.61,SSE,149,0.0,0.0,23,0.00,,,0.00,meteohub,2013-05-23 09:46:00,
2013-05-23 03:51:00,69.3,28.8,29.61,SSE,149,0.0,0.0,22,0.00,,,0.00,meteohub,2013-05-23 09:51:00,
2013-05-23 03:56:00,69.1,27.5,29.61,SSE,149,0.0,0.0,21,0.00,,,0.00,meteohub,2013-05-23 09:56:00,
2013-05-23 04:02:00,68.9,27.3,29.61,SSE,149,0.0,0.0,21,0.00,,,0.00,meteohub,2013-05-23 10:02:00,
2013-05-23 04:07:00,68.7,28.4,29.61,SSE,149,0.0,0.0,22,0.00,,,0.00,meteohub,2013-05-23 10:07:00,
2013-05-23 04:12:00,68.5,25.9,29.61,SSE,149,0.0,0.0,20,0.00,,,0.00,meteohub,2013-05-23 10:12:00,
2013-05-23 04:17:00,68.4,25.7,29.62,SE,146,0.0,0.0,20,0.00,,,0.00,meteohub,2013-05-23 10:17:00,
2013-05-23 04:22:00,68.4,24.4,29.61,ESE,103,0.0,0.0,19,0.00,,,0.00,meteohub,2013-05-23 10:22:00,
2013-05-23 04:27:00,68.5,24.6,29.62,ESE,106,0.0,0.0,19,0.00,,,0.00,meteohub,2013-05-23 10:27:00,
2013-05-23 04:32:00,68.7,26.1,29.62,East,97,0.0,0.0,20,0.00,,,0.00,meteohub,2013-05-23 10:32:00,
2013-05-23 04:37:00,69.1,23.7,29.62,East,99,0.0,0.0,18,0.00,,,0.00,meteohub,2013-05-23 10:37:00,
2013-05-23 04:42:00,69.3,25.2,29.62,ESE,115,0.0,0.0,19,0.00,,,0.00,meteohub,2013-05-23 10:42:00,
2013-05-23 04:47:00,69.3,25.2,29.62,ESE,115,0.0,0.0,19,0.00,,,0.00,meteohub,2013-05-23 10:47:00,
2013-05-23 04:52:00,69.3,23.9,29.62,ESE,115,0.0,0.0,18,0.00,,,0.00,meteohub,2013-05-23 10:52:00,
2013-05-23 04:57:00,69.1,25.2,29.63,ESE,115,0.0,0.0,19,0.00,,,0.00,meteohub,2013-05-23 10:57:00,
2013-05-23 05:03:00,68.7,24.8,29.62,ESE,115,0.0,0.0,19,0.00,,,0.00,meteohub,2013-05-23 11:03:00,
2013-05-23 05:08:00,68.5,24.6,29.63,ESE,115,0.0,0.0,19,0.00,,,0.00,meteohub,2013-05-23 11:08:00,
2013-05-23 05:13:00,68.5,23.4,29.62,ESE,115,0.0,0.0,18,0.00,,,0.00,meteohub,2013-05-23 11:13:00,
2013-05-23 05:18:00,68.4,24.4,29.62,ESE,115,0.0,0.0,19,0.00,,,0.00,meteohub,2013-05-23 11:18:00,
2013-05-23 05:24:00,68.2,25.5,29.62,ESE,115,0.0,0.0,20,0.00,,,0.00,meteohub,2013-05-23 11:24:00,
2013-05-23 05:29:00,67.8,25.3,29.62,ESE,115,0.0,0.0,20,0.00,,,0.00,meteohub,2013-05-23 11:29:00,
2013-05-23 05:34:00,67.5,26.2,29.62,ESE,113,0.0,0.0,21,0.00,,,0.00,meteohub,2013-05-23 11:34:00,
2013-05-23 05:39:00,67.3,24.8,29.63,ESE,113,0.0,0.0,20,0.00,,,0.00,meteohub,2013-05-23 11:39:00,
2013-05-23 05:45:00,67.3,24.8,29.62,ESE,113,0.0,0.0,20,0.00,,,0.00,meteohub,2013-05-23 11:45:00,
2013-05-23 05:50:00,67.3,27.1,29.62,ESE,113,0.0,0.0,22,0.00,,,0.00,meteohub,2013-05-23 11:50:00,
2013-05-23 05:55:00,66.9,26.8,29.63,ESE,113,0.0,0.0,22,0.00,,,0.00,meteohub,2013-05-23 11:55:00,
2013-05-23 06:00:00,66.7,25.5,29.63,ESE,113,0.0,0.0,21,0.00,,,0.00,meteohub,2013-05-23 12:00:00,
2013-05-23 06:05:00,66.6,28.6,29.63,ESE,113,0.0,0.0,24,0.00,,,0.00,meteohub,2013-05-23 12:05:00,
2013-05-23 06:11:00,66.0,30.2,29.64,ESE,113,0.0,0.0,26,0.00,,,0.00,meteohub,2013-05-23 12:11:00,
2013-05-23 06:16:00,65.5,28.8,29.64,ESE,113,0.0,0.0,25,0.00,,,0.00,meteohub,2013-05-23 12:16:00,
2013-05-23 06:21:00,64.9,29.3,29.64,ESE,113,0.0,0.0,26,0.00,,,0.00,meteohub,2013-05-23 12:21:00,
2013-05-23 06:26:00,64.8,29.1,29.65,ESE,113,0.0,0.0,26,0.00,,,0.00,meteohub,2013-05-23 12:26:00,
2013-05-23 06:32:00,64.4,30.6,29.64,ESE,113,0.0,0.0,28,0.00,,,0.00,meteohub,2013-05-23 12:32:00,
2013-05-23 06:37:00,64.0,31.1,29.64,ESE,113,0.0,0.0,29,0.00,,,0.00,meteohub,2013-05-23 12:37:00,
2013-05-23 06:42:00,63.9,32.7,29.65,ESE,113,0.0,0.0,31,0.00,,,0.00,meteohub,2013-05-23 12:42:00,
2013-05-23 06:47:00,63.5,33.1,29.65,ESE,113,0.0,0.0,32,0.00,,,0.00,meteohub,2013-05-23 12:47:00,
2013-05-23 06:52:00,63.3,33.8,29.64,ESE,115,0.0,0.0,33,0.00,,,0.00,meteohub,2013-05-23 12:52:00,
2013-05-23 06:57:00,63.1,30.4,29.64,ESE,116,0.0,0.0,29,0.00,,,0.00,meteohub,2013-05-23 12:57:00,
2013-05-23 07:02:00,63.3,27.9,29.64,ESE,116,0.0,0.0,26,0.00,,,0.00,meteohub,2013-05-23 13:02:00,
2013-05-23 07:07:00,63.9,33.4,29.65,SE,134,0.0,0.0,32,0.00,,,0.00,meteohub,2013-05-23 13:07:00,
2013-05-23 07:12:00,63.9,32.7,29.65,South,169,0.0,0.0,31,0.00,,,0.00,meteohub,2013-05-23 13:12:00,
2013-05-23 07:18:00,63.9,33.4,29.65,South,169,0.0,0.0,32,0.00,,,0.00,meteohub,2013-05-23 13:18:00,
2013-05-23 07:23:00,64.0,32.0,29.65,South,169,0.0,0.0,30,0.00,,,0.00,meteohub,2013-05-23 13:23:00,
2013-05-23 07:28:00,64.4,31.5,29.65,South,169,0.0,0.0,29,0.00,,,0.00,meteohub,2013-05-23 13:28:00,
2013-05-23 07:33:00,64.9,32.7,29.65,South,169,0.0,0.0,30,0.00,,,0.00,meteohub,2013-05-23 13:33:00,
2013-05-23 07:38:00,65.5,27.7,29.66,South,169,0.0,0.0,24,0.00,,,0.00,meteohub,2013-05-23 13:38:00,
2013-05-23 07:44:00,66.4,31.5,29.66,South,169,0.0,0.0,27,0.00,,,0.00,meteohub,2013-05-23 13:44:00,
2013-05-23 07:49:00,67.3,29.3,29.67,SSE,161,0.0,0.0,24,0.00,,,0.00,meteohub,2013-05-23 13:49:00,
2013-05-23 07:54:00,68.2,30.0,29.66,SSE,156,0.0,0.0,24,0.00,,,0.00,meteohub,2013-05-23 13:54:00,
2013-05-23 07:59:00,69.1,30.7,29.67,SSE,152,0.0,0.0,24,0.00,,,0.00,meteohub,2013-05-23 13:59:00,
2013-05-23 08:05:00,70.0,32.5,29.67,SE,145,0.0,0.0,25,0.00,,,0.00,meteohub,2013-05-23 14:05:00,
2013-05-23 08:10:00,70.9,31.3,29.67,SE,145,0.0,0.0,23,0.00,,,0.00,meteohub,2013-05-23 14:10:00,
2013-05-23 08:15:00,71.8,32.0,29.67,SE,142,0.0,0.0,23,0.00,,,0.00,meteohub,2013-05-23 14:15:00,
2013-05-23 08:20:00,72.7,32.7,29.67,SE,142,0.0,0.0,23,0.00,,,0.00,meteohub,2013-05-23 14:20:00,
2013-05-23 08:25:00,73.8,32.5,29.68,SE,142,0.0,0.0,22,0.00,,,0.00,meteohub,2013-05-23 14:25:00,
2013-05-23 08:31:00,74.8,32.4,29.68,SE,142,0.0,0.0,21,0.00,,,0.00,meteohub,2013-05-23 14:31:00,
2013-05-23 08:36:00,75.9,30.7,29.68,SE,142,0.0,0.0,19,0.00,,,0.00,meteohub,2013-05-23 14:36:00,
2013-05-23 08:41:00,76.8,30.0,29.68,SE,143,0.0,0.0,18,0.00,,,0.00,meteohub,2013-05-23 14:41:00,
2013-05-23 08:46:00,77.5,29.3,29.68,SE,143,0.0,0.0,17,0.00,,,0.00,meteohub,2013-05-23 14:46:00,
2013-05-23 08:52:00,78.3,28.4,29.68,SE,144,0.0,0.0,16,0.00,,,0.00,meteohub,2013-05-23 14:52:00,
2013-05-23 08:57:00,79.0,28.9,29.68,SE,143,0.0,0.0,16,0.00,,,0.00,meteohub,2013-05-23 14:57:00,
2013-05-23 09:02:00,79.5,29.5,29.68,SE,143,0.0,0.0,16,0.00,,,0.00,meteohub,2013-05-23 15:02:00,
2013-05-23 09:07:00,80.2,30.0,29.68,SE,143,0.0,0.0,16,0.00,,,0.00,meteohub,2013-05-23 15:07:00,
2013-05-23 09:12:00,81.0,30.6,29.68,SE,143,0.0,0.0,16,0.00,,,0.00,meteohub,2013-05-23 15:12:00,
2013-05-23 09:17:00,81.7,31.1,29.68,SE,143,0.0,0.0,16,0.00,,,0.00,meteohub,2013-05-23 15:17:00,
2013-05-23 09:22:00,81.9,31.3,29.68,SE,143,0.0,0.0,16,0.00,,,0.00,meteohub,2013-05-23 15:22:00,
2013-05-23 09:27:00,82.2,33.1,29.68,SE,143,0.0,0.0,17,0.00,,,0.00,meteohub,2013-05-23 15:27:00,
2013-05-23 09:32:00,82.8,32.0,29.68,SE,143,0.0,0.0,16,0.00,,,0.00,meteohub,2013-05-23 15:32:00,
2013-05-23 09:37:00,83.1,30.7,29.68,SE,143,0.0,0.0,15,0.00,,,0.00,meteohub,2013-05-23 15:37:00,
2013-05-23 09:42:00,83.7,32.7,29.68,SE,144,0.0,0.0,16,0.00,,,0.00,meteohub,2013-05-23 15:42:00,
2013-05-23 09:47:00,84.6,31.8,29.68,SE,144,0.0,0.0,15,0.00,,,0.00,meteohub,2013-05-23 15:47:00,
2013-05-23 09:52:00,85.6,30.9,29.67,SE,144,0.0,0.0,14,0.00,,,0.00,meteohub,2013-05-23 15:52:00,
2013-05-23 09:57:00,86.5,27.9,29.67,SE,144,0.0,0.0,12,0.00,,,0.00,meteohub,2013-05-23 15:57:00,
2013-05-23 10:02:00,87.3,28.4,29.67,SE,144,0.0,0.0,12,0.00,,,0.00,meteohub,2013-05-23 16:02:00,
2013-05-23 10:07:00,88.3,31.3,29.67,SE,144,0.0,0.0,13,0.00,,,0.00,meteohub,2013-05-23 16:07:00,
2013-05-23 10:12:00,89.4,32.2,29.67,SE,144,0.0,0.0,13,0.00,,,0.00,meteohub,2013-05-23 16:12:00,
2013-05-23 10:18:00,90.0,32.5,29.66,SE,144,0.0,0.0,13,0.00,,,0.00,meteohub,2013-05-23 16:18:00,
2013-05-23 10:23:00,90.3,30.7,29.66,SE,145,0.0,0.0,12,0.00,,,0.00,meteohub,2013-05-23 16:23:00,
2013-05-23 10:28:00,90.9,33.3,29.65,SE,145,0.0,0.0,13,0.00,,,0.00,meteohub,2013-05-23 16:28:00,
2013-05-23 10:33:00,91.6,31.8,29.65,SE,145,0.0,0.0,12,0.00,,,0.00,meteohub,2013-05-23 16:33:00,
2013-05-23 10:39:00,91.9,32.0,29.65,SE,145,0.0,0.0,12,0.00,,,0.00,meteohub,2013-05-23 16:39:00,
2013-05-23 10:44:00,92.3,30.2,29.65,ESE,119,0.0,0.0,11,0.00,,,0.00,meteohub,2013-05-23 16:44:00,
2013-05-23 10:49:00,92.1,27.7,29.65,ESE,119,0.0,0.0,10,0.00,,,0.00,meteohub,2013-05-23 16:49:00,
2013-05-23 10:54:00,91.9,34.2,29.65,SE,127,0.0,0.0,13,0.00,,,0.00,meteohub,2013-05-23 16:54:00,
2013-05-23 10:59:00,90.9,29.1,29.65,WSW,246,0.0,0.0,11,0.00,,,0.00,meteohub,2013-05-23 16:59:00,
2013-05-23 11:04:00,89.4,28.0,29.65,WSW,249,0.0,0.0,11,0.00,,,0.00,meteohub,2013-05-23 17:04:00,
2013-05-23 11:10:00,89.1,27.7,29.65,WSW,249,0.0,0.0,11,0.00,,,0.00,meteohub,2013-05-23 17:10:00,
2013-05-23 11:15:00,89.8,32.4,29.65,WSW,249,0.0,0.0,13,0.00,,,0.00,meteohub,2013-05-23 17:15:00,
2013-05-23 11:20:00,90.7,28.9,29.64,WSW,249,0.0,0.0,11,0.00,,,0.00,meteohub,2013-05-23 17:20:00,
2013-05-23 11:25:00,90.5,30.9,29.64,West,261,0.0,0.0,12,0.00,,,0.00,meteohub,2013-05-23 17:25:00,
2013-05-23 11:30:00,90.3,30.7,29.65,West,259,0.0,0.0,12,0.00,,,0.00,meteohub,2013-05-23 17:30:00,
2013-05-23 11:35:00,90.7,31.1,29.64,West,262,0.0,0.0,12,0.00,,,0.00,meteohub,2013-05-23 17:35:00,
2013-05-23 11:40:00,90.7,31.1,29.64,West,268,0.0,0.0,12,0.00,,,0.00,meteohub,2013-05-23 17:40:00,
2013-05-23 11:46:00,90.9,31.3,29.64,West,268,0.0,0.0,12,0.00,,,0.00,meteohub,2013-05-23 17:46:00,
2013-05-23 11:51:00,91.2,35.4,29.64,West,267,0.0,0.0,14,0.00,,,0.00,meteohub,2013-05-23 17:51:00,
2013-05-23 11:56:00,92.1,32.2,29.64,West,267,0.0,0.0,12,0.00,,,0.00,meteohub,2013-05-23 17:56:00,
2013-05-23 12:01:00,92.7,32.7,29.63,WSW,256,0.0,0.0,12,0.00,,,0.00,meteohub,2013-05-23 18:01:00,
2013-05-23 12:07:00,92.3,32.4,29.63,West,261,0.0,0.0,12,0.00,,,0.00,meteohub,2013-05-23 18:07:00,
2013-05-23 12:12:00,92.8,30.6,29.63,West,261,0.0,0.0,11,0.00,,,0.00,meteohub,2013-05-23 18:12:00,
2013-05-23 12:17:00,92.1,27.7,29.63,West,269,0.0,0.0,10,0.00,,,0.00,meteohub,2013-05-23 18:17:00,
2013-05-23 12:22:00,92.1,32.2,29.63,West,270,0.0,0.0,12,0.00,,,0.00,meteohub,2013-05-23 18:22:00,
2013-05-23 12:28:00,92.7,32.7,29.63,West,272,0.0,0.0,12,0.00,,,0.00,meteohub,2013-05-23 18:28:00,
2013-05-23 12:33:00,93.7,33.4,29.62,SW,236,0.0,0.0,12,0.00,,,0.00,meteohub,2013-05-23 18:33:00,
2013-05-23 12:38:00,94.6,29.7,29.62,SE,142,0.0,0.0,10,0.00,,,0.00,meteohub,2013-05-23 18:38:00,
2013-05-23 12:43:00,94.8,29.8,29.62,SE,134,0.0,0.0,10,0.00,,,0.00,meteohub,2013-05-23 18:43:00,
2013-05-23 12:48:00,95.0,29.8,29.62,South,186,0.0,0.0,10,0.00,,,0.00,meteohub,2013-05-23 18:48:00,
2013-05-23 12:54:00,94.8,34.3,29.62,West,263,0.0,0.0,12,0.00,,,0.00,meteohub,2013-05-23 18:54:00,
2013-05-23 12:59:00,93.6,28.8,29.61,West,269,0.0,0.0,10,0.00,,,0.00,meteohub,2013-05-23 18:59:00,
2013-05-23 13:04:00,93.7,28.9,29.62,ESE,123,0.0,0.0,10,0.00,,,0.00,meteohub,2013-05-23 19:04:00,
2013-05-23 13:09:00,94.1,31.6,29.62,SE,128,0.0,0.0,11,0.00,,,0.00,meteohub,2013-05-23 19:09:00,
2013-05-23 13:15:00,94.6,34.2,29.61,East,83,0.0,0.0,12,0.00,,,0.00,meteohub,2013-05-23 19:15:00,
2013-05-23 13:20:00,95.0,29.8,29.61,SW,219,0.0,0.0,10,0.00,,,0.00,meteohub,2013-05-23 19:20:00,
2013-05-23 13:25:00,94.8,29.8,29.60,SW,215,0.0,0.0,10,0.00,,,0.00,meteohub,2013-05-23 19:25:00,
2013-05-23 13:30:00,95.2,32.4,29.60,East,89,0.0,0.0,11,0.00,,,0.00,meteohub,2013-05-23 19:30:00,
2013-05-23 13:35:00,95.4,30.2,29.60,SSW,194,0.0,0.0,10,0.00,,,0.00,meteohub,2013-05-23 19:35:00,
2013-05-23 13:40:00,95.2,30.0,29.60,ESE,109,0.0,0.0,10,0.00,,,0.00,meteohub,2013-05-23 19:40:00,
2013-05-23 13:45:00,95.4,30.2,29.60,East,92,0.0,0.0,10,0.00,,,0.00,meteohub,2013-05-23 19:45:00,
2013-05-23 13:50:00,95.4,32.5,29.60,SSW,205,0.0,0.0,11,0.00,,,0.00,meteohub,2013-05-23 19:50:00,
2013-05-23 13:56:00,95.5,32.7,29.60,ESE,117,0.0,0.0,11,0.00,,,0.00,meteohub,2013-05-23 19:56:00,
2013-05-23 14:01:00,96.1,30.7,29.59,SW,215,0.0,0.0,10,0.00,,,0.00,meteohub,2013-05-23 20:01:00,
2013-05-23 14:06:00,96.4,30.9,29.59,ESE,107,0.0,0.0,10,0.00,,,0.00,meteohub,2013-05-23 20:06:00,
2013-05-23 14:11:00,96.3,30.9,29.59,East,84,0.0,0.0,10,0.00,,,0.00,meteohub,2013-05-23 20:11:00,
2013-05-23 14:16:00,96.6,31.1,29.59,ESE,108,0.0,0.0,10,0.00,,,0.00,meteohub,2013-05-23 20:16:00,
2013-05-23 14:22:00,97.0,31.5,29.59,SSE,163,0.0,0.0,10,0.00,,,0.00,meteohub,2013-05-23 20:22:00,
2013-05-23 14:27:00,97.0,31.5,29.58,SE,130,0.0,0.0,10,0.00,,,0.00,meteohub,2013-05-23 20:27:00,
2013-05-23 14:32:00,97.3,31.6,29.57,East,89,0.0,0.0,10,0.00,,,0.00,meteohub,2013-05-23 20:32:00,
2013-05-23 14:37:00,97.5,31.8,29.57,East,94,0.0,0.0,10,0.00,,,0.00,meteohub,2013-05-23 20:37:00,
2013-05-23 14:42:00,97.3,31.6,29.57,ESE,107,0.0,0.0,10,0.00,,,0.00,meteohub,2013-05-23 20:42:00,
2013-05-23 14:47:00,97.3,34.0,29.57,East,92,0.0,0.0,11,0.00,,,0.00,meteohub,2013-05-23 20:47:00,
2013-05-23 14:52:00,97.3,31.6,29.56,ESE,117,0.0,0.0,10,0.00,,,0.00,meteohub,2013-05-23 20:52:00,
2013-05-23 14:57:00,97.2,31.5,29.56,SSW,204,0.0,0.0,10,0.00,,,0.00,meteohub,2013-05-23 20:57:00,
2013-05-23 15:02:00,96.8,33.6,29.56,ESE,105,0.0,0.0,11,0.00,,,0.00,meteohub,2013-05-23 21:02:00,
2013-05-23 15:08:00,96.8,31.3,29.55,ESE,119,0.0,0.0,10,0.00,,,0.00,meteohub,2013-05-23 21:08:00,
2013-05-23 15:13:00,97.2,34.0,29.55,SSW,204,0.0,0.0,11,0.00,,,0.00,meteohub,2013-05-23 21:13:00,
2013-05-23 15:18:00,97.3,31.6,29.55,SSW,202,0.0,0.0,10,0.00,,,0.00,meteohub,2013-05-23 21:18:00,
2013-05-23 15:23:00,96.6,31.1,29.55,ESE,104,0.0,0.0,10,0.00,,,0.00,meteohub,2013-05-23 21:23:00,
2013-05-23 15:28:00,97.2,31.5,29.54,SE,126,0.0,0.0,10,0.00,,,0.00,meteohub,2013-05-23 21:28:00,
2013-05-23 15:34:00,97.3,31.6,29.54,WSW,243,0.0,0.0,10,0.00,,,0.00,meteohub,2013-05-23 21:34:00,
2013-05-23 15:39:00,97.2,31.5,29.54,SSW,207,0.0,0.0,10,0.00,,,0.00,meteohub,2013-05-23 21:39:00,
2013-05-23 15:44:00,97.5,31.8,29.54,SSW,200,0.0,0.0,10,0.00,,,0.00,meteohub,2013-05-23 21:44:00,
2013-05-23 15:49:00,97.5,31.8,29.53,SW,221,0.0,0.0,10,0.00,,,0.00,meteohub,2013-05-23 21:49:00,
2013-05-23 15:54:00,98.1,34.5,29.53,WNW,287,0.0,0.0,11,0.00,,,0.00,meteohub,2013-05-23 21:54:00,
2013-05-23 15:59:00,97.3,31.6,29.53,SW,226,0.0,0.0,10,0.00,,,0.00,meteohub,2013-05-23 21:59:00,
2013-05-23 16:05:00,97.2,31.5,29.52,NW,321,0.0,0.0,10,0.00,,,0.00,meteohub,2013-05-23 22:05:00,
2013-05-23 16:10:00,97.3,31.6,29.52,WSW,254,0.0,0.0,10,0.00,,,0.00,meteohub,2013-05-23 22:10:00,
2013-05-23 16:15:00,97.2,34.0,29.52,ESE,108,0.0,0.0,11,0.00,,,0.00,meteohub,2013-05-23 22:15:00,
2013-05-23 16:20:00,97.2,31.5,29.52,SW,225,0.0,0.0,10,0.00,,,0.00,meteohub,2013-05-23 22:20:00,
2013-05-23 16:25:00,97.2,31.5,29.52,West,274,0.0,0.0,10,0.00,,,0.00,meteohub,2013-05-23 22:25:00,
2013-05-23 16:31:00,97.0,28.8,29.51,SSW,211,0.0,0.0,9,0.00,,,0.00,meteohub,2013-05-23 22:31:00,
2013-05-23 16:36:00,97.3,34.0,29.50,West,277,0.0,0.0,11,0.00,,,0.00,meteohub,2013-05-23 22:36:00,
2013-05-23 16:41:00,96.8,31.3,29.50,SW,215,0.0,0.0,10,0.00,,,0.00,meteohub,2013-05-23 22:41:00,
2013-05-23 16:46:00,96.6,28.6,29.50,WNW,288,0.0,0.0,9,0.00,,,0.00,meteohub,2013-05-23 22:46:00,
2013-05-23 16:51:00,95.9,30.6,29.50,West,265,0.0,0.0,10,0.00,,,0.00,meteohub,2013-05-23 22:51:00,
2013-05-23 16:57:00,95.7,30.4,29.50,West,263,0.0,0.0,10,0.00,,,0.00,meteohub,2013-05-23 22:57:00,
2013-05-23 17:02:00,95.5,27.7,29.50,West,262,0.0,0.0,9,0.00,,,0.00,meteohub,2013-05-23 23:02:00,
2013-05-23 17:07:00,95.4,27.7,29.50,West,278,0.0,0.0,9,0.00,,,0.00,meteohub,2013-05-23 23:07:00,
2013-05-23 17:12:00,95.2,27.5,29.50,West,270,0.0,0.0,9,0.00,,,0.00,meteohub,2013-05-23 23:12:00,
2013-05-23 17:17:00,95.4,27.7,29.50,West,261,0.0,0.0,9,0.00,,,0.00,meteohub,2013-05-23 23:17:00,
2013-05-23 17:22:00,95.4,30.2,29.50,SSW,211,0.0,0.0,10,0.00,,,0.00,meteohub,2013-05-23 23:22:00,
2013-05-23 17:28:00,95.7,27.9,29.50,WNW,282,0.0,0.0,9,0.00,,,0.00,meteohub,2013-05-23 23:28:00,
2013-05-23 17:33:00,95.5,27.7,29.50,West,265,0.0,0.0,9,0.00,,,0.00,meteohub,2013-05-23 23:33:00,
2013-05-23 17:38:00,95.7,30.4,29.50,WSW,258,0.0,0.0,10,0.00,,,0.00,meteohub,2013-05-23 23:38:00,
2013-05-23 17:43:00,96.1,28.2,29.49,West,279,0.0,0.0,9,0.00,,,0.00,meteohub,2013-05-23 23:43:00,
2013-05-23 17:49:00,96.1,28.2,29.50,WNW,284,0.0,0.0,9,0.00,,,0.00,meteohub,2013-05-23 23:49:00,
2013-05-23 17:54:00,95.5,27.7,29.50,WSW,257,0.0,0.0,9,0.00,,,0.00,meteohub,2013-05-23 23:54:00,
2013-05-23 17:59:00,95.0,27.3,29.49,West,281,0.0,0.0,9,0.00,,,0.00,meteohub,2013-05-23 23:59:00,
2013-05-23 18:04:00,94.3,26.8,29.50,WNW,283,0.0,0.0,9,0.00,,,0.00,meteohub,2013-05-24 00:04:00,
2013-05-23 18:09:00,93.7,28.9,29.49,West,259,0.0,0.0,10,0.00,,,0.00,meteohub,2013-05-24 00:09:00,
2013-05-23 18:15:00,93.6,26.2,29.49,West,270,0.0,0.0,9,0.00,,,0.00,meteohub,2013-05-24 00:15:00,
2013-05-23 18:20:00,93.4,26.1,29.50,West,261,0.0,0.0,9,0.00,,,0.00,meteohub,2013-05-24 00:20:00,
2013-05-23 18:25:00,93.4,26.1,29.49,West,264,0.0,0.0,9,0.00,,,0.00,meteohub,2013-05-24 00:25:00,
2013-05-23 18:30:00,93.2,28.6,29.49,West,265,0.0,0.0,10,0.00,,,0.00,meteohub,2013-05-24 00:30:00,
2013-05-23 18:35:00,93.0,28.4,29.50,West,261,0.0,0.0,10,0.00,,,0.00,meteohub,2013-05-24 00:35:00,
2013-05-23 18:41:00,93.0,28.4,29.50,West,261,0.0,0.0,10,0.00,,,0.00,meteohub,2013-05-24 00:41:00,
2013-05-23 18:46:00,92.8,28.2,29.50,West,265,0.0,0.0,10,0.00,,,0.00,meteohub,2013-05-24 00:46:00,
2013-05-23 18:51:00,92.5,30.4,29.50,West,265,0.0,0.0,11,0.00,,,0.00,meteohub,2013-05-24 00:51:00,
2013-05-23 18:56:00,92.5,30.4,29.50,West,265,0.0,0.0,11,0.00,,,0.00,meteohub,2013-05-24 00:56:00,
2013-05-23 19:01:00,92.5,30.4,29.50,West,265,0.0,0.0,11,0.00,,,0.00,meteohub,2013-05-24 01:01:00,
2013-05-23 19:07:00,92.8,30.6,29.50,West,265,0.0,0.0,11,0.00,,,0.00,meteohub,2013-05-24 01:07:00,
2013-05-23 19:12:00,93.2,30.9,29.50,West,265,0.0,0.0,11,0.00,,,0.00,meteohub,2013-05-24 01:12:00,
2013-05-23 19:17:00,93.4,31.1,29.49,West,265,0.0,0.0,11,0.00,,,0.00,meteohub,2013-05-24 01:17:00,
2013-05-23 19:22:00,93.6,31.1,29.49,West,265,0.0,0.0,11,0.00,,,0.00,meteohub,2013-05-24 01:22:00,
2013-05-23 19:27:00,93.6,31.1,29.50,West,265,0.0,0.0,11,0.00,,,0.00,meteohub,2013-05-24 01:27:00,
2013-05-23 19:32:00,93.4,31.1,29.50,West,265,0.0,0.0,11,0.00,,,0.00,meteohub,2013-05-24 01:32:00,
2013-05-23 19:37:00,93.0,32.9,29.50,West,265,0.0,0.0,12,0.00,,,0.00,meteohub,2013-05-24 01:37:00,
2013-05-23 19:42:00,92.7,32.7,29.50,West,265,0.0,0.0,12,0.00,,,0.00,meteohub,2013-05-24 01:42:00,
2013-05-23 19:47:00,92.3,32.4,29.50,West,265,0.0,0.0,12,0.00,,,0.00,meteohub,2013-05-24 01:47:00,
2013-05-23 19:52:00,91.8,29.8,29.51,West,280,0.0,0.0,11,0.00,,,0.00,meteohub,2013-05-24 01:52:00,
2013-05-23 19:57:00,91.4,27.1,29.51,WSW,255,0.0,0.0,10,0.00,,,0.00,meteohub,2013-05-24 01:57:00,
2013-05-23 20:03:00,91.0,27.0,29.52,West,281,0.0,0.0,10,0.00,,,0.00,meteohub,2013-05-24 02:03:00,
2013-05-23 20:08:00,90.7,26.6,29.52,WNW,284,0.0,0.0,10,0.00,,,0.00,meteohub,2013-05-24 02:08:00,
2013-05-23 20:13:00,90.3,26.4,29.52,WNW,284,0.0,0.0,10,0.00,,,0.00,meteohub,2013-05-24 02:13:00,
2013-05-23 20:18:00,90.1,28.6,29.52,WNW,282,0.0,0.0,11,0.00,,,0.00,meteohub,2013-05-24 02:18:00,
2013-05-23 20:24:00,89.8,28.2,29.52,WNW,282,0.0,0.0,11,0.00,,,0.00,meteohub,2013-05-24 02:24:00,
2013-05-23 20:29:00,89.2,27.9,29.53,West,277,0.0,0.0,11,0.00,,,0.00,meteohub,2013-05-24 02:29:00,
2013-05-23 20:34:00,89.1,27.7,29.53,West,277,0.0,0.0,11,0.00,,,0.00,meteohub,2013-05-24 02:34:00,
2013-05-23 20:39:00,88.5,27.3,29.54,West,277,0.0,0.0,11,0.00,,,0.00,meteohub,2013-05-24 02:39:00,
2013-05-23 20:45:00,88.2,27.0,29.55,West,277,0.0,0.0,11,0.00,,,0.00,meteohub,2013-05-24 02:45:00,
2013-05-23 20:50:00,87.6,26.6,29.55,West,277,0.0,0.0,11,0.00,,,0.00,meteohub,2013-05-24 02:50:00,
2013-05-23 20:55:00,87.1,32.2,29.55,West,277,0.0,0.0,14,0.00,,,0.00,meteohub,2013-05-24 02:55:00,
2013-05-23 21:00:00,86.2,31.5,29.55,West,277,0.0,0.0,14,0.00,,,0.00,meteohub,2013-05-24 03:00:00,
2013-05-23 21:06:00,85.3,32.4,29.56,West,277,0.0,0.0,15,0.00,,,0.00,meteohub,2013-05-24 03:06:00,
2013-05-23 21:11:00,84.6,31.8,29.56,West,277,0.0,0.0,15,0.00,,,0.00,meteohub,2013-05-24 03:11:00,
2013-05-23 21:16:00,84.0,29.7,29.57,West,278,0.0,0.0,14,0.00,,,0.00,meteohub,2013-05-24 03:16:00,
2013-05-23 21:21:00,83.7,31.1,29.57,ESE,110,0.0,0.0,15,0.00,,,0.00,meteohub,2013-05-24 03:21:00,
2013-05-23 21:26:00,83.5,35.6,29.57,East,79,0.0,0.0,18,0.00,,,0.00,meteohub,2013-05-24 03:26:00,
2013-05-23 21:32:00,83.5,36.9,29.57,ENE,74,0.0,0.0,19,0.00,,,0.00,meteohub,2013-05-24 03:32:00,
2013-05-23 21:37:00,83.5,38.1,29.58,ESE,108,0.0,0.0,20,0.00,,,0.00,meteohub,2013-05-24 03:37:00,
2013-05-23 21:42:00,83.8,38.5,29.59,East,92,0.0,0.0,20,0.00,,,0.00,meteohub,2013-05-24 03:42:00,
2013-05-23 21:47:00,83.8,37.2,29.59,ENE,78,0.0,0.0,19,0.00,,,0.00,meteohub,2013-05-24 03:47:00,
2013-05-23 21:52:00,83.8,34.3,29.59,East,81,0.0,0.0,17,0.00,,,0.00,meteohub,2013-05-24 03:52:00,
2013-05-23 21:57:00,84.0,37.4,29.59,East,81,0.0,0.0,19,0.00,,,0.00,meteohub,2013-05-24 03:57:00,
2013-05-23 22:01:00,83.7,37.0,29.60,East,81,0.0,0.0,19,0.00,,,0.00,meteohub,2013-05-24 04:01:00,
2013-05-23 22:02:00,83.7,37.0,29.60,East,81,0.0,0.0,19,0.00,,,0.00,meteohub,2013-05-24 04:02:00,
2013-05-23 22:04:00,83.5,38.1,29.60,East,88,0.0,0.0,20,0.00,,,0.00,meteohub,2013-05-24 04:04:00,
2013-05-23 22:09:00,82.9,40.1,29.60,East,94,0.0,0.0,22,0.00,,,0.00,meteohub,2013-05-24 04:09:00,
2013-05-23 22:14:00,82.6,42.1,29.60,ESE,104,0.0,0.0,24,0.00,,,0.00,meteohub,2013-05-24 04:14:00,
2013-05-23 22:19:00,82.2,43.9,29.61,East,84,0.0,0.0,26,0.00,,,0.00,meteohub,2013-05-24 04:19:00,
2013-05-23 22:25:00,81.9,45.5,29.61,East,83,0.0,0.0,28,0.00,,,0.00,meteohub,2013-05-24 04:25:00,
2013-05-23 22:30:00,81.1,47.7,29.62,East,94,0.0,0.0,31,0.00,,,0.00,meteohub,2013-05-24 04:30:00,
2013-05-23 22:35:00,80.2,47.7,29.62,ESE,115,0.0,0.0,32,0.00,,,0.00,meteohub,2013-05-24 04:35:00,
2013-05-23 22:40:00,79.2,49.1,29.63,East,92,0.0,0.0,35,0.00,,,0.00,meteohub,2013-05-24 04:40:00,
2013-05-23 22:46:00,78.3,49.8,29.63,East,86,0.0,0.0,37,0.00,,,0.00,meteohub,2013-05-24 04:46:00,
2013-05-23 22:51:00,77.4,49.8,29.64,East,96,0.0,0.0,38,0.00,,,0.00,meteohub,2013-05-24 04:51:00,
2013-05-23 22:56:00,76.6,49.8,29.64,ESE,103,0.0,0.0,39,0.00,,,0.00,meteohub,2013-05-24 04:56:00,
2013-05-23 23:01:00,76.3,50.2,29.64,ESE,123,0.0,0.0,40,0.00,,,0.00,meteohub,2013-05-24 05:01:00,
2013-05-23 23:06:00,75.9,49.8,29.64,East,90,0.0,0.0,40,0.00,,,0.00,meteohub,2013-05-24 05:06:00,
2013-05-23 23:12:00,75.7,49.6,29.64,ESE,111,0.0,0.0,40,0.00,,,0.00,meteohub,2013-05-24 05:12:00,
2013-05-23 23:17:00,75.4,50.0,29.64,East,94,0.0,0.0,41,0.00,,,0.00,meteohub,2013-05-24 05:17:00,
2013-05-23 23:22:00,75.0,49.6,29.65,East,80,0.0,0.0,41,0.00,,,0.00,meteohub,2013-05-24 05:22:00,
2013-05-23 23:27:00,75.0,50.4,29.65,East,101,0.0,0.0,42,0.00,,,0.00,meteohub,2013-05-24 05:27:00,
2013-05-23 23:32:00,74.8,49.6,29.65,ESE,111,0.0,0.0,41,0.00,,,0.00,meteohub,2013-05-24 05:32:00,
2013-05-23 23:37:00,74.7,50.0,29.65,East,82,0.0,0.0,42,0.00,,,0.00,meteohub,2013-05-24 05:37:00,
2013-05-23 23:42:00,74.5,49.8,29.65,East,85,0.0,0.0,42,0.00,,,0.00,meteohub,2013-05-24 05:42:00,
2013-05-23 23:47:00,74.3,49.6,29.65,ESE,107,0.0,0.0,42,0.00,,,0.00,meteohub,2013-05-24 05:47:00,
2013-05-23 23:52:00,74.1,49.6,29.65,ESE,102,0.0,0.0,42,0.00,,,0.00,meteohub,2013-05-24 05:52:00,
2013-05-23 23:57:00,73.9,50.0,29.65,ESE,121,0.0,0.0,43,0.00,,,0.00,meteohub,2013-05-24 05:57:00,